This demonstration page uses our WeatherBlox Daily Observations layout. Learn more.

Left ArrowRight Arrow

39.01783, -85.05884

Hourly Observations for October 5, 2015

Temp ( °F °C ) Dew Point ( °F °C ) Humidity (%) Winds ( mph kmh ) Pressure ( in mb ) Visibility ( mi km ) Precip ( " mm )
12:52 am 00:52 Mostly Clear 63 17.2 57 13.9 81 81 ENE 8 13 30.05 1018 10 16 N/A
1:52 am 01:52 Clear 62 16.7 56 13.3 80 80 ENE 8 13 30.06 1018 10 16 N/A
2:52 am 02:52 Clear 62 16.7 56 13.3 80 80 NE 6 9 30.05 1018 10 16 N/A
3:52 am 03:52 Clear 61 16 55 13 83 83 ENE 7 11 30.06 1018 10 16 N/A
4:52 am 04:52 Clear 60 15.6 55 12.8 84 84 ENE 9 15 30.05 1018 10 16 N/A
5:52 am 05:52 Clear 59 15 55 12.8 87 87 NE 8 13 30.06 1018 10 16 N/A
6:52 am 06:52 Clear 58 14.4 55 12.8 90 90 E 8 13 30.06 1018 10 16 N/A
7:52 am 07:52 Mostly Sunny 58 14.4 54 12.2 87 87 ENE 7 11 30.08 1019 10 16 N/A
8:52 am 08:52 Mostly Sunny 59 15 55 12.8 87 87 ENE 8 13 30.09 1019 10 16 N/A
9:52 am 09:52 Mostly Sunny 63 17.2 55 12.8 76 76 ENE 8 13 30.09 1019 10 16 N/A
10:52 am 10:52 Mostly Sunny 66 18.9 56 13.3 70 70 ENE 6 9 30.11 1020 10 16 N/A
11:52 am 11:52 Mostly Sunny 69 20.6 56 13.3 63 63 ENE 8 13 30.09 1019 10 16 N/A
12:52 pm 12:52 Mostly Cloudy 73 22.8 57 13.9 57 57 NE 7 11 30.09 1019 10 16 N/A
1:52 pm 13:52 Mostly Cloudy 74 23.3 57 13.9 56 56 ENE 9 15 30.07 1018 10 16 N/A
2:52 pm 14:52 Mostly Sunny 77 25 58 14.4 52 52 VRB 5 7 30.05 1018 10 16 N/A
3:52 pm 15:52 Mostly Sunny 78 25.6 57 13.9 48 48 NNE 9 15 30.03 1017 10 16 N/A
4:52 pm 16:52 Mostly Sunny 78 25.6 57 13.9 48 48 VRB 5 7 30.03 1017 10 16 N/A
5:52 pm 17:52 Mostly Sunny 78 25.6 57 13.9 48 48 VRB 5 7 30.02 1017 10 16 N/A
6:52 pm 18:52 Partly Cloudy 75 23.9 56 13.3 52 52 NE 6 9 30.03 1017 10 16 N/A
7:52 pm 19:52 Mostly Clear 72 22.2 56 13.3 57 57 N N/A 30.04 1017 10 16 N/A
8:52 pm 20:52 Partly Cloudy 67 19.4 57 13.9 71 71 N N/A 30.05 1018 10 16 N/A
9:52 pm 21:52 Mostly Cloudy 66 18.9 57 13.9 73 73 N N/A 30.06 1018 10 16 N/A
10:52 pm 22:52 Mostly Cloudy 66 18.9 57 13.9 73 73 N N/A 30.06 1018 10 16 N/A
11:52 pm 23:52 Cloudy 65 18.3 56 13.3 73 73 E 6 9 30.05 1018 10 16 N/A

Powered by AerisWeather